When you browse on this site, cookies collect data to enhance your experience and personalize the content and advertising you see.
Visit our Privacy Policy to learn more. By continuing to use the site, you agree to this use of cookies and data.
  • In France
  • List of Countries
  • For 7 days
  • Water Temperature
  • Weather Map
  • Weather Widgets
  • user-avatar
    Login

    Hourly Weather Fleet

    Today, 26 May, Tuesday

    Time Temperature Precipitation Wind Pressure Humidity
    00:00 +13°C° 0 mm 1 mps 768 mmHg 91%
    01:00 +12°C° 0 mm 1 mps 768 mmHg 90%
    02:00 +12°C° 0 mm 1 mps 768 mmHg 89%
    03:00 +12°C° 0 mm 1 mps 768 mmHg 89%
    04:00 +13°C° 0 mm 1 mps 768 mmHg 85%
    05:00 +13°C° 0 mm 1 mps 769 mmHg 82%
    06:00 +15°C° 0 mm 1 mps 769 mmHg 79%
    07:00 +16°C° 0 mm 1 mps 769 mmHg 74%
    08:00 +19°C° 0 mm 1 mps 769 mmHg 68%
    09:00 +20°C° 0 mm 1 mps 769 mmHg 63%
    10:00 +20°C° 0 mm 2 mps 769 mmHg 59%
    11:00 +21°C° 0 mm 2 mps 769 mmHg 56%
    12:00 +23°C° 0 mm 2 mps 769 mmHg 52%
    13:00 +23°C° 0 mm 2 mps 769 mmHg 52%
    14:00 +23°C° 0 mm 2 mps 769 mmHg 52%
    15:00 +23°C° 0 mm 2 mps 769 mmHg 52%
    16:00 +23°C° 0 mm 2 mps 769 mmHg 58%
    17:00 +21°C° 0 mm 2 mps 769 mmHg 63%
    18:00 +20°C° 0 mm 2 mps 768 mmHg 69%
    19:00 +19°C° 0 mm 2 mps 769 mmHg 74%
    20:00 +17°C° 0 mm 2 mps 769 mmHg 80%
    21:00 +16°C° 0 mm 1 mps 769 mmHg 85%
    22:00 +15°C° 0 mm 1 mps 769 mmHg 87%
    23:00 +15°C° 0 mm 1 mps 769 mmHg 89%

    Tomorrow, 27 May, Wednesday

    Time Temperature Precipitation Wind Pressure Humidity
    00:00 +14°C° 0 mm 1 mps 769 mmHg 91%
    01:00 +14°C° 0 mm 2 mps 769 mmHg 91%
    02:00 +13°C° 0 mm 2 mps 769 mmHg 92%
    03:00 +13°C° 0 mm 2 mps 769 mmHg 92%
    04:00 +14°C° 0 mm 2 mps 769 mmHg 90%
    05:00 +14°C° 0 mm 2 mps 769 mmHg 88%
    06:00 +15°C° 0 mm 2 mps 769 mmHg 85%
    07:00 +16°C° 0 mm 2 mps 769 mmHg 81%
    08:00 +18°C° 0 mm 2 mps 769 mmHg 76%
    09:00 +20°C° 0 mm 2 mps 769 mmHg 71%
    10:00 +20°C° 0 mm 2 mps 769 mmHg 68%
    11:00 +21°C° 0 mm 2 mps 769 mmHg 65%
    12:00 +23°C° 0 mm 2 mps 769 mmHg 62%
    13:00 +23°C° 0 mm 2 mps 769 mmHg 62%
    14:00 +22°C° 0 mm 3 mps 769 mmHg 62%
    15:00 +22°C° 0 mm 3 mps 768 mmHg 62%
    16:00 +22°C° 0 mm 3 mps 768 mmHg 65%
    17:00 +21°C° 0 mm 2 mps 768 mmHg 68%
    18:00 +20°C° 0 mm 2 mps 768 mmHg 71%
    19:00 +18°C° 0 mm 2 mps 768 mmHg 76%
    20:00 +16°C° 0 mm 2 mps 769 mmHg 81%
    21:00 +15°C° 0 mm 2 mps 769 mmHg 87%
    22:00 +14°C° 0 mm 2 mps 769 mmHg 87%
    23:00 +13°C° 0 mm 2 mps 769 mmHg 87%

    Day after tomorrow, 28 May, Thursday

    Time Temperature Precipitation Wind Pressure Humidity
    00:00 +12°C° 0 mm 2 mps 769 mmHg 87%
    01:00 +12°C° 0 mm 2 mps 768 mmHg 87%
    02:00 +11°C° 0 mm 1 mps 768 mmHg 86%
    03:00 +11°C° 0 mm 1 mps 768 mmHg 86%
    04:00 +10°C° 0 mm 2 mps 768 mmHg 84%
    05:00 +12°C° 0 mm 2 mps 768 mmHg 81%
    06:00 +12°C° 0 mm 3 mps 768 mmHg 79%
    07:00 +14°C° 0 mm 3 mps 768 mmHg 72%
    08:00 +16°C° 0 mm 3 mps 768 mmHg 65%
    09:00 +18°C° 0 mm 4 mps 768 mmHg 58%
    10:00 +19°C° 0 mm 4 mps 768 mmHg 56%
    11:00 +20°C° 0 mm 4 mps 767 mmHg 54%
    12:00 +21°C° 0 mm 4 mps 767 mmHg 52%
    13:00 +21°C° 0 mm 4 mps 767 mmHg 52%
    14:00 +21°C° 0 mm 4 mps 766 mmHg 52%
    15:00 +21°C° 0 mm 4 mps 766 mmHg 52%
    16:00 +20°C° 0 mm 4 mps 766 mmHg 55%
    17:00 +19°C° 0 mm 4 mps 765 mmHg 58%
    18:00 +18°C° 0 mm 4 mps 765 mmHg 61%
    19:00 +15°C° 0 mm 4 mps 765 mmHg 63%
    20:00 +13°C° 0 mm 3 mps 765 mmHg 65%
    21:00 +11°C° 0 mm 3 mps 765 mmHg 67%
    22:00 +10°C° 0 mm 3 mps 765 mmHg 69%
    23:00 +10°C° 0 mm 3 mps 765 mmHg 72%

    29 May, Friday

    Time Temperature Precipitation Wind Pressure Humidity
    00:00 +9°C° 0 mm 3 mps 765 mmHg 74%
    01:00 +9°C° 0 mm 3 mps 764 mmHg 77%
    02:00 +9°C° 0 mm 2 mps 764 mmHg 79%
    03:00 +9°C° 0 mm 2 mps 764 mmHg 81%
    04:00 +10°C° 0 mm 3 mps 764 mmHg 80%
    05:00 +11°C° 0 mm 3 mps 763 mmHg 80%
    06:00 +12°C° 0 mm 3 mps 763 mmHg 79%
    07:00 +14°C° 0 mm 3 mps 763 mmHg 73%
    08:00 +17°C° 0 mm 4 mps 763 mmHg 66%
    09:00 +19°C° 0 mm 4 mps 763 mmHg 60%
    10:00 +20°C° 0 mm 4 mps 763 mmHg 56%
    11:00 +21°C° 0 mm 4 mps 763 mmHg 53%
    12:00 +21°C° 0 mm 5 mps 763 mmHg 50%
    13:00 +22°C° 0 mm 4 mps 762 mmHg 50%
    14:00 +22°C° 0 mm 4 mps 762 mmHg 51%
    15:00 +22°C° 0 mm 4 mps 762 mmHg 51%
    16:00 +21°C° 0 mm 4 mps 761 mmHg 55%
    17:00 +20°C° 0 mm 4 mps 761 mmHg 59%
    18:00 +20°C° 0 mm 3 mps 761 mmHg 62%
    19:00 +17°C° 0 mm 3 mps 761 mmHg 63%
    20:00 +14°C° 0 mm 3 mps 761 mmHg 63%
    21:00 +12°C° 0 mm 3 mps 761 mmHg 63%
    22:00 +11°C° 0 mm 3 mps 761 mmHg 66%
    23:00 +11°C° 0 mm 3 mps 761 mmHg 68%

    30 May, Saturday

    Time Temperature Precipitation Wind Pressure Humidity
    00:00 +10°C° 0 mm 3 mps 761 mmHg 71%
    01:00 +10°C° 0 mm 2 mps 761 mmHg 76%
    02:00 +9°C° 0 mm 2 mps 761 mmHg 81%
    03:00 +9°C° 0 mm 2 mps 761 mmHg 86%
    04:00 +10°C° 0 mm 2 mps 761 mmHg 85%
    05:00 +12°C° 0 mm 2 mps 761 mmHg 84%
    06:00 +13°C° 0 mm 2 mps 761 mmHg 83%
    07:00 +15°C° 0 mm 2 mps 761 mmHg 77%
    08:00 +17°C° 0 mm 3 mps 761 mmHg 70%
    09:00 +19°C° 0 mm 3 mps 761 mmHg 64%
    10:00 +20°C° 0 mm 3 mps 761 mmHg 61%
    11:00 +21°C° 0 mm 3 mps 761 mmHg 58%
    12:00 +21°C° 0 mm 3 mps 761 mmHg 55%
    13:00 +22°C° 0 mm 3 mps 760 mmHg 56%
    14:00 +22°C° 0 mm 3 mps 760 mmHg 57%
    15:00 +22°C° 0 mm 3 mps 760 mmHg 58%
    16:00 +21°C° 0 mm 3 mps 759 mmHg 62%
    17:00 +20°C° 0 mm 3 mps 759 mmHg 66%
    18:00 +20°C° 0 mm 3 mps 759 mmHg 69%
    19:00 +18°C° 0 mm 3 mps 759 mmHg 73%
    20:00 +16°C° 0 mm 3 mps 759 mmHg 77%
    21:00 +13°C° 0 mm 3 mps 759 mmHg 81%
    22:00 +12°C° 0 mm 3 mps 759 mmHg 82%
    23:00 +12°C° 0 mm 2 mps 759 mmHg 84%

    31 May, Sunday

    Time Temperature Precipitation Wind Pressure Humidity
    00:00 +12°C° 0 mm 2 mps 759 mmHg 86%
    01:00 +10°C° 0 mm 2 mps 759 mmHg 87%
    02:00 +10°C° 0 mm 2 mps 759 mmHg 89%
    03:00 +9°C° 0 mm 2 mps 759 mmHg 90%
    04:00 +10°C° 0 mm 2 mps 759 mmHg 88%
    05:00 +12°C° 0 mm 2 mps 759 mmHg 87%
    06:00 +12°C° 0 mm 3 mps 759 mmHg 85%
    07:00 +14°C° 0 mm 3 mps 759 mmHg 79%
    08:00 +17°C° 0 mm 3 mps 759 mmHg 74%
    09:00 +19°C° 0 mm 3 mps 759 mmHg 68%
    10:00 +20°C° 0 mm 2 mps 759 mmHg 64%
    11:00 +21°C° 0 mm 2 mps 759 mmHg 60%
    12:00 +23°C° 0 mm 2 mps 758 mmHg 56%
    13:00 +23°C° 0 mm 2 mps 758 mmHg 56%
    14:00 +23°C° 0 mm 2 mps 758 mmHg 55%
    15:00 +23°C° 0 mm 2 mps 758 mmHg 55%
    16:00 +23°C° 0 mm 2 mps 757 mmHg 60%
    17:00 +21°C° 0 mm 2 mps 757 mmHg 64%
    18:00 +20°C° 0 mm 2 mps 757 mmHg 69%
    19:00 +18°C° 0 mm 2 mps 757 mmHg 71%
    20:00 +16°C° 0 mm 2 mps 757 mmHg 74%
    21:00 +15°C° 0 mm 2 mps 757 mmHg 76%
    22:00 +14°C° 0 mm 2 mps 757 mmHg 77%
    23:00 +13°C° 0 mm 2 mps 757 mmHg 78%
    Show more